| time (UTC) | temp C | wind direction | speed KPH | gust KPH | rain 1hr cm | rain 24hr cm | rain mn cm | humidity % | barometer mb |
| 20260505100023 | 15 | 189 | 1.6 | 6.4 | 0.00 | 0.00 | 0.00 | 71 | 1014.8 |
| 20260505094527 | 15 | 214 | 1.6 | 6.4 | 0.00 | 0.00 | 0.00 | 70 | 1014.6 |
| 20260505093009 | 15 | 257 | 3.2 | 9.7 | 0.00 | 0.00 | 0.00 | 69 | 1014.6 |
| 20260505091516 | 16 | 316 | 4.8 | 17.7 | 0.00 | 0.00 | 0.00 | 69 | 1014.6 |
| 20260505090029 | 16 | 226 | 4.8 | 12.9 | 0.00 | 0.00 | 0.00 | 68 | 1014.4 |
| 20260505084530 | 16 | 288 | 3.2 | 11.3 | 0.00 | 0.00 | 0.00 | 68 | 1014.2 |
| 20260505083025 | 16 | 239 | 3.2 | 12.9 | 0.00 | 0.00 | 0.00 | 67 | 1014.3 |
| 20260505081510 | 16 | 234 | 4.8 | 14.5 | 0.00 | 0.00 | 0.00 | 67 | 1014.3 |
| 20260505080025 | 16 | 295 | 4.8 | 19.3 | 0.00 | 0.00 | 0.00 | 67 | 1014.2 |
| 20260505074521 | 16 | 300 | 4.8 | 16.1 | 0.00 | 0.00 | 0.00 | 68 | 1014.1 |
| 20260505073026 | 16 | 260 | 3.2 | 11.3 | 0.00 | 0.00 | 0.00 | 68 | 1014.0 |
| 20260505071508 | 16 | 196 | 1.6 | 11.3 | 0.00 | 0.00 | 0.00 | 68 | 1014.0 |
| 20260505070022 | 16 | 276 | 3.2 | 9.7 | 0.00 | 0.00 | 0.00 | 67 | 1013.9 |
| 20260505064522 | 17 | 232 | 3.2 | 20.9 | 0.00 | 0.00 | 0.00 | 66 | 1013.8 |
| 20260505063026 | 17 | 43 | 3.2 | 14.5 | 0.00 | 0.00 | 0.00 | 66 | 1013.8 |
| 20260505061524 | 17 | 265 | 3.2 | 14.5 | 0.00 | 0.00 | 0.00 | 65 | 1013.9 |
| 20260505060012 | 17 | 228 | 4.8 | 19.3 | 0.00 | 0.00 | 0.00 | 65 | 1013.9 |
| 20260505054522 | 17 | 274 | 6.4 | 17.7 | 0.00 | 0.00 | 0.00 | 65 | 1013.9 |
| 20260505053005 | 17 | 302 | 4.8 | 16.1 | 0.00 | 0.00 | 0.00 | 64 | 1014.0 |
| 20260505051507 | 17 | 200 | 4.8 | 16.1 | 0.00 | 0.00 | 0.00 | 64 | 1014.0 |
| 20260505041503 | 17 | 258 | 4.8 | 14.5 | 0.00 | 0.00 | 0.00 | 64 | 1013.8 |
| 20260505040018 | 18 | 1 | 3.2 | 16.1 | 0.00 | 0.00 | 0.00 | 63 | 1013.6 |
| 20260505034527 | 18 | 217 | 3.2 | 14.5 | 0.00 | 0.00 | 0.00 | 62 | 1013.5 |
| 20260505033020 | 18 | 239 | 1.6 | 9.7 | 0.00 | 0.00 | 0.00 | 60 | 1013.5 |
| 20260505031503 | 18 | 234 | 6.4 | 16.1 | 0.00 | 0.00 | 0.00 | 57 | 1013.5 |
| 20260505030014 | 18 | 180 | 3.2 | 17.7 | 0.00 | 0.00 | 0.00 | 55 | 1013.4 |
| 20260505024514 | 18 | 249 | 1.6 | 3.2 | 0.00 | 0.00 | 0.00 | 51 | 1013.3 |
| 20260505023014 | 18 | 228 | 0.0 | 3.2 | 0.00 | 0.00 | 0.00 | 49 | 1013.3 |
| 20260505021524 | 19 | 225 | 1.6 | 6.4 | 0.00 | 0.00 | 0.00 | 48 | 1013.1 |
| 20260505020012 | 19 | 229 | 1.6 | 4.8 | 0.00 | 0.00 | 0.00 | 48 | 1013.1 |
| 20260505014515 | 19 | 186 | 0.0 | 3.2 | 0.00 | 0.00 | 0.00 | 48 | 1012.9 |
| 20260505013017 | 18 | 256 | 0.0 | 4.8 | 0.00 | 0.00 | 0.00 | 50 | 1012.8 |
| 20260505011521 | 18 | 176 | 0.0 | 3.2 | 0.00 | 0.00 | 0.00 | 54 | 1012.8 |
| 20260505010027 | 19 | 224 | 0.0 | 3.2 | 0.00 | 0.00 | 0.00 | 50 | 1012.9 |
| 20260505004515 | 20 | 223 | 0.0 | 3.2 | 0.00 | 0.00 | 0.00 | 48 | 1012.7 |
| 20260505003017 | 20 | 238 | 0.0 | 3.2 | 0.00 | 0.00 | 0.00 | 46 | 1012.6 |
| 20260505001518 | 21 | 245 | 0.0 | 3.2 | 0.00 | 0.00 | 0.00 | 45 | 1012.4 |
| 20260505000038 | 21 | 227 | 0.0 | 3.2 | 0.00 | 0.00 | 0.00 | 43 | 1012.2 |
| 20260504234505 | 22 | 215 | 0.0 | 4.8 | 0.00 | 0.00 | 0.00 | 41 | 1012.3 |
| 20260504233002 | 23 | 231 | 1.6 | 6.4 | 0.00 | 0.00 | 0.00 | 38 | 1012.2 |
| 20260504231502 | 23 | 192 | 3.2 | 8.0 | 0.00 | 0.00 | 0.00 | 36 | 1012.1 |
| 20260504230002 | 24 | 235 | 1.6 | 9.7 | 0.00 | 0.00 | 0.00 | 36 | 1012.0 |
| 20260504224502 | 24 | 268 | 1.6 | 8.0 | 0.00 | 0.00 | 0.00 | 35 | 1011.8 |
| 20260504223004 | 25 | 207 | 1.6 | 12.9 | 0.00 | 0.00 | 0.00 | 34 | 1011.9 |
| 20260504221503 | 25 | 240 | 3.2 | 17.7 | 0.00 | 0.00 | 0.00 | 33 | 1011.9 |
| 20260504220009 | 25 | 16 | 1.6 | 14.5 | 0.00 | 0.00 | 0.00 | 33 | 1011.9 |
| 20260504214504 | 25 | 273 | 3.2 | 11.3 | 0.00 | 0.00 | 0.00 | 32 | 1011.9 |
| 20260504213005 | 26 | 280 | 1.6 | 17.7 | 0.00 | 0.00 | 0.00 | 33 | 1012.0 |
| 20260504211505 | 25 | 290 | 6.4 | 19.3 | 0.00 | 0.00 | 0.00 | 31 | 1011.9 |
| 20260504210004 | 26 | 270 | 4.8 | 14.5 | 0.00 | 0.00 | 0.00 | 31 | 1012.0 |
| 20260504204503 | 26 | 177 | 3.2 | 11.3 | 0.00 | 0.00 | 0.00 | 31 | 1012.0 |
| 20260504203003 | 26 | 127 | 1.6 | 12.9 | 0.00 | 0.00 | 0.00 | 31 | 1012.0 |
| 20260504201503 | 26 | 1 | 3.2 | 12.9 | 0.00 | 0.00 | 0.00 | 30 | 1012.1 |
| 20260504200005 | 25 | 237 | 3.2 | 14.5 | 0.00 | 0.00 | 0.00 | 30 | 1012.3 |
| 20260504194503 | 25 | 236 | 3.2 | 12.9 | 0.00 | 0.00 | 0.00 | 29 | 1012.5 |
| 20260504193008 | 25 | 289 | 4.8 | 14.5 | 0.00 | 0.00 | 0.00 | 31 | 1013.1 |
| 20260504191503 | 24 | 251 | 4.8 | 16.1 | 0.00 | 0.00 | 0.00 | 28 | 1013.3 |
| 20260504190006 | 24 | 252 | 6.4 | 16.1 | 0.00 | 0.00 | 0.00 | 27 | 1013.4 |
| 20260504184506 | 25 | 245 | 6.4 | 11.3 | 0.00 | 0.00 | 0.00 | 30 | 1013.6 |
| 20260504183010 | 24 | 260 | 3.2 | 11.3 | 0.00 | 0.00 | 0.00 | 32 | 1013.7 |
| 20260504181503 | 23 | 360 | 3.2 | 11.3 | 0.00 | 0.00 | 0.00 | 30 | 1014.0 |
| 20260504180011 | 23 | 257 | 3.2 | 9.7 | 0.00 | 0.00 | 0.00 | 33 | 1014.2 |
| 20260504174505 | 23 | 224 | 0.0 | 11.3 | 0.00 | 0.00 | 0.00 | 31 | 1014.2 |
| 20260504173010 | 24 | 311 | 3.2 | 9.7 | 0.00 | 0.00 | 0.00 | 29 | 1014.4 |
| 20260504171507 | 23 | 337 | 3.2 | 9.7 | 0.00 | 0.00 | 0.00 | 32 | 1014.5 |